Tracking 32139 objects as of 16-Nov-2025
HD Live streaming from Space Station
objects crossing your sky now

FREGAT R/B

Track FREGAT R/B now!


NORAD ID: 65591
Int'l Code: 2025-206C
Perigee: 18,987.8 km
Apogee: 19,040.5 km
Inclination: 64.8 °
Period: 670.9 minutes
Semi major axis: 25385 km
RCS: Unknown
Launch date: September 13, 2025
Source: Commonwealth of Independent States (former USSR) (CIS)
Launch site: PLESETSK MISSILE AND SPACE COMPLEX (PKMTR)

Note: This is a ROCKET BODY
Your satellite tracking list
Your tracking list is empty




NASA's NSSDC Master Catalog

Two Line Element Set (TLE):
1 65591U 25206C   25318.12094360 -.00000038  00000-0  00000-0 0  9997
2 65591  64.7668 322.4329 0010389 181.6636 178.3628  2.14651287  1341
Source of the keplerian elements: AFSPC